Regional Weather Roundup
Issued by NWS

Home | Current Version | Previous Version | Graphics & Text | Print | Product List | Glossary Off
Versions: 1 2 3 4 5 6 7 8 9 10 11 12 13 14 15 16 17 18 19 20 21 22 23 24 25 26 27 28 29 30 31 32 33 34 35 36 37 38 39 40 41 42 43 44 45 46 47 48 49 50

000
ASUS43 KTOP 220859
RWRKS

WEATHER ROUNDUP FOR KANSAS
NATIONAL WEATHER SERVICE GOODLAND KS
300 AM CST WED FEB 22 2017

NOTE:  "FAIR" INDICATES FEW OR NO CLOUDS BELOW 12,000 FEET WITH NO
SIGNIFICANT WEATHER AND/OR OBSTRUCTIONS TO VISIBILITY.

KSZ001>006-013>018-027>032-041>047-221000-
NORTHWEST KANSAS

CITY           SKY/WX    TMP DP  RH WIND       PRES   REMARKS
GOODLAND       CLOUDY    56  14  19 W14       29.80F
HAYS             N/A     49  24  37 S3        29.79F
HILL CITY      CLOUDY    56  26  31 SW14      29.75F
RUSSELL        CLOUDY    49  33  54 SW15      29.77F
$$

KSZ061>065-074>080-084>089-221000-
SOUTHWEST KANSAS

CITY           SKY/WX    TMP DP  RH WIND       PRES   REMARKS
DODGE CITY     CLEAR     50  24  36 SW13      29.83F
ELKHART          N/A     47  18  31 W13         N/A
GARDEN CITY    CLOUDY    42  24  49 SW12      29.83F
GREAT BEND     CLOUDY    44  33  65 S10       29.81F
LIBERAL        CLOUDY    45  25  45 W8        29.85F
$$

KSZ066>073-081>083-090>101-221000-
SOUTHEAST KANSAS

CITY           SKY/WX    TMP DP  RH WIND       PRES   REMARKS
CHANUTE        CLEAR     42  37  82 S7        29.86F
COFFEYVILLE    CLEAR     41  40  96 CALM      29.87F
HUTCHINSON     CLEAR     45  34  65 S6        29.83F
MEDICINE LODGE   N/A     43  34  70 S5        29.85F
NEWTON         CLEAR     47  37  68 S12       29.85F
PARSONS        PTCLDY    38  36  92 CALM      29.87F
WICHITA INTL   CLEAR     40  35  83 S8        29.85F
WICHITA JABRA  CLEAR     48  37  65 S10       29.85F
WINFIELD       CLEAR     43  36  76 CALM      29.88F
$$

KSZ007>012-019>026-033>040-048>060-102>105-221000-
NORTHEAST KANSAS

CITY           SKY/WX    TMP DP  RH WIND       PRES   REMARKS
CONCORDIA      PTCLDY    50  36  58 S16       29.75F
EMPORIA        CLEAR     45  34  65 CALM      29.83F
LAWRENCE       CLOUDY    35  31  85 CALM      29.83F
MANHATTAN      CLOUDY    41  35  79 E3        29.79F
OLATHE IND     CLEAR     43  36  76 S6        29.83F
OLATHE EXE     CLEAR     46  40  79 S7        29.82F
SALINA         PTCLDY    51  37  58 S9        29.79F
TOPEKA BILLARD CLEAR     41  36  82 CALM      29.82S
TOPEKA FORBES  CLEAR     44  33  65 S3        29.82F
$$




USA.gov is the U.S. government's official web portal to all federal, state and local government web resources and services.